Weather History for Manhattan, KS

Change the Weather History Date:

Wednesday, May 22, 2013

  Actual Average Record
Temperature  
Mean Temperature 61 °F 66 °F  
Max Temperature 72 °F 78 °F 93 °F (2000)
Min Temperature 50 °F 53 °F 39 °F (2001)
Degree Days  
Heating Degree Days 4 3  
Month to date heating degree days 151 107  
Since 1 July heating degree days 5169 5288  
Cooling Degree Days 0 3  
Month to date cooling degree days 46 44  
Year to date cooling degree days 63 61  
Growing Degree Days 10 (Base 50)    
Moisture  
Dew Point 49 °F    
Average Humidity 69    
Maximum Humidity 89    
Minimum Humidity 49    
Precipitation  
Precipitation 0.00 in 0.18 in 0.53 in (1999)
Month to date precipitation 2.55 2.93  
Year to date precipitation 8.60 9.65  
Sea Level Pressure  
Sea Level Pressure 29.86 in    
Wind  
Wind Speed 5 mph (NW)    
Max Wind Speed 15 mph    
Max Gust Speed 22 mph    
Visibility 10 miles    
Events      
T = Trace of Precipitation, MM = Missing Value Source: NWS Daily Summary

Daily Weather History Graph

Daily Weather History Graph

Search for Another Location

Airport:

Trip Planner

Search our weather history database for the weather conditions in past years. The results will help you decide how hot, cold, wet, or windy it might be!

Date:

Astronomy

May. 22, 2013 Rise Set
Actual Time 6:07 AM CDT 8:39 PM CDT
Civil Twilight 5:37 AM CDT 9:10 PM CDT
Nautical Twilight 4:58 AM CDT 9:48 PM CDT
Astronomical Twilight 4:16 AM CDT 10:31 PM CDT
Moon 6:04 PM CDT (5/22) 4:11 AM CDT (5/22)
Length of Visible Light 15h 33m
Length of Day
14h 31m
Waxing Gibbous, 91% of the Moon is Illuminated
May 22
Waxing Gibbous
May 24
Full
May 31
Last Quarter
Jun 8
New
Jun 16
First Quarter

Hourly Weather History & Observations

Time (CDT) Temp. Dew Point Humidity Pressure Visibility Wind Dir Wind Speed Gust Speed Precip Events Conditions
12:52 AM 57.9 °F 50.0 °F 75% 29.78 in 10.0 mi Calm Calm - N/A   Overcast
1:52 AM 57.9 °F 51.1 °F 78% 29.78 in 10.0 mi Calm Calm - N/A   Overcast
2:52 AM 57.0 °F 51.1 °F 81% 29.78 in 10.0 mi Variable 3.5 mph - N/A   Mostly Cloudy
3:52 AM 54.0 °F 48.0 °F 80% 29.79 in 10.0 mi Calm Calm - N/A   Clear
4:52 AM 52.0 °F 48.0 °F 86% 29.80 in 10.0 mi Variable 3.5 mph - N/A   Clear
5:52 AM 50.0 °F 46.0 °F 86% 29.81 in 10.0 mi West 3.5 mph - N/A   Clear
6:52 AM 52.0 °F 46.9 °F 83% 29.83 in 10.0 mi West 5.8 mph - N/A   Clear
7:52 AM 55.0 °F 46.9 °F 74% 29.83 in 10.0 mi WNW 10.4 mph 17.3 mph N/A   Clear
8:52 AM 55.9 °F 46.0 °F 69% 29.86 in 10.0 mi NW 10.4 mph 18.4 mph N/A   Scattered Clouds
9:52 AM 60.1 °F 46.9 °F 62% 29.86 in 10.0 mi NNW 10.4 mph 18.4 mph N/A   Scattered Clouds
10:08 AM 60.8 °F 46.4 °F 59% 29.87 in 10.0 mi NW 8.1 mph 18.4 mph N/A   Mostly Cloudy
10:30 AM 60.8 °F 46.4 °F 59% 29.87 in 10.0 mi NW 8.1 mph 18.4 mph N/A   Mostly Cloudy
10:52 AM 61.0 °F 46.9 °F 60% 29.88 in 10.0 mi NNW 8.1 mph 16.1 mph N/A   Overcast
11:52 AM 63.0 °F 48.0 °F 58% 29.88 in 10.0 mi Variable 4.6 mph - N/A   Overcast
12:52 PM 64.0 °F 48.0 °F 56% 29.88 in 10.0 mi NNW 9.2 mph - N/A   Overcast
1:52 PM 66.0 °F 48.9 °F 54% 29.88 in 10.0 mi WNW 8.1 mph - N/A   Mostly Cloudy
2:52 PM 68.0 °F 50.0 °F 52% 29.86 in 10.0 mi Variable 6.9 mph - N/A   Partly Cloudy
3:52 PM 70.0 °F 50.0 °F 49% 29.86 in 10.0 mi West 10.4 mph - N/A   Mostly Cloudy
4:52 PM 70.0 °F 51.1 °F 51% 29.86 in 10.0 mi NW 8.1 mph - N/A   Mostly Cloudy
5:52 PM 71.1 °F 52.0 °F 51% 29.86 in 10.0 mi Variable 4.6 mph - N/A   Mostly Cloudy
6:52 PM 71.1 °F 51.1 °F 49% 29.87 in 10.0 mi NNW 4.6 mph - N/A   Mostly Cloudy
7:52 PM 68.0 °F 52.0 °F 56% 29.88 in 10.0 mi Calm Calm - N/A   Clear
8:52 PM 64.0 °F 52.0 °F 65% 29.91 in 10.0 mi Calm Calm - N/A   Clear
9:52 PM 57.9 °F 52.0 °F 81% 29.94 in 10.0 mi Calm Calm - N/A   Clear
10:52 PM 59.0 °F 51.1 °F 75% 29.97 in 10.0 mi NNE 4.6 mph - N/A   Clear
11:52 PM 57.0 °F 50.0 °F 77% 29.99 in 10.0 mi Calm Calm - N/A   Clear